EW3148 Weather Reports


time (UTC)temp
F
wind
direction
speed
knots
gust
knots
rain 1hr
in
rain 24hr
in
rain mn
in
humidity
%
barometer
mb
20260903203342 101 65 3.5 9.6 0.00 0.00 0.00 41 1007.8
20260903202324 102 178 1.7 8.7 0.00 0.00 0.00 40 1007.9
20260903201307 102 196 2.6 8.7 0.00 0.00 0.00 40 1008.1
20260903200327 101 197 1.7 7.0 0.00 0.00 0.00 39 1008.1
20260903195330 101 261 2.6 8.7 0.00 0.00 0.00 41 1008.1
20260903194323 100 191 3.5 8.7 0.00 0.00 0.00 42 1008.2
20260903193249 101 151 1.7 7.8 0.00 0.00 0.00 42 1008.4
20260903192229 100 205 2.6 7.8 0.00 0.00 0.00 44 1008.7
20260903190138 99 167 1.7 10.4 0.00 0.00 0.00 44 1009.0
20260903185105 99 192 3.5 10.4 0.00 0.00 0.00 45 1009.2
20260903184040 99 215 3.5 8.7 0.00 0.00 0.00 46 1009.3
20260903183036 98 205 3.5 9.6 0.00 0.00 0.00 47 1009.4
20260903182039 98 165 3.5 9.6 0.00 0.00 0.00 47 1009.6
20260903181023 98 197 1.7 8.7 0.00 0.00 0.00 47 1009.7
20260903180042 97 208 2.6 13.0 0.00 0.00 0.00 46 1009.8
20260903175047 97 166 3.5 13.0 0.00 0.00 0.00 49 1009.9
20260903174107 96 163 4.3 13.0 0.00 0.00 0.00 49 1009.8
20260903173123 96 155 1.7 8.7 0.00 0.00 0.00 51 1010.0
20260903171006 95 173 3.5 10.4 0.00 0.00 0.00 52 1010.3
20260903170022 95 200 2.6 6.1 0.00 0.00 0.00 53 1010.5
20260903165034 94 246 2.6 9.6 0.00 0.00 0.00 54 1010.5
20260903164040 93 196 3.5 13.0 0.00 0.00 0.00 56 1010.6
20260903161909 92 219 3.5 10.4 0.00 0.00 0.00 57 1010.6
20260903160932 91 202 1.7 8.7 0.00 0.00 0.00 59 1010.6
20260903155931 91 231 3.5 11.3 0.00 0.00 0.00 59 1010.6
20260903153739 89 184 2.6 12.2 0.00 0.00 0.00 64 1010.6
20260903152753 88 255 3.5 12.2 0.00 0.00 0.00 65 1010.5
20260903150641 87 218 2.6 12.2 0.00 0.00 0.00 68 1010.5
20260903144525 85 173 2.6 7.8 0.00 0.00 0.00 72 1010.4
20260903142356 84 214 2.6 13.0 0.00 0.00 0.00 75 1010.4
20260903141419 84 151 3.5 10.4 0.00 0.00 0.00 77 1010.4
20260903140426 83 234 3.5 12.2 0.00 0.00 0.00 78 1010.4
20260903133207 81 215 2.6 11.3 0.00 0.00 0.00 83 1010.6
20260903131059 81 210 3.5 11.3 0.00 0.00 0.00 84 1010.6
20260903130048 81 213 2.6 11.3 0.00 0.00 0.00 84 1010.5
20260903125026 80 175 4.3 11.3 0.00 0.00 0.00 85 1010.4
20260903123952 80 165 2.6 12.2 0.00 0.00 0.00 85 1010.5
20260903122930 80 186 3.5 12.2 0.00 0.00 0.00 85 1010.4
20260903121919 80 177 2.6 8.7 0.00 0.00 0.00 86 1010.3
20260903120913 80 202 2.6 10.4 0.00 0.00 0.00 86 1010.2
20260903115913 80 194 2.6 14.8 0.00 0.00 0.00 86 1010.0
20260903114901 80 171 3.5 14.8 0.00 0.00 0.00 86 1009.9
20260903113828 80 205 3.5 10.4 0.00 0.00 0.00 86 1009.9
20260903112846 80 176 3.5 10.4 0.00 0.00 0.00 86 1010.0
20260903110720 80 186 3.5 13.0 0.00 0.00 0.00 86 1009.9
20260903103356 79 175 4.3 11.3 0.00 0.00 0.00 88 1009.7
20260903102341 79 165 4.3 11.3 0.00 0.00 0.00 88 1009.6
20260903100206 79 175 3.5 7.8 0.00 0.00 0.00 88 1009.7
20260903094107 79 161 2.6 8.7 0.00 0.00 0.00 88 1009.8
20260903091925 79 188 3.5 8.7 0.00 0.00 0.00 87 1009.9
20260903090852 79 163 3.5 11.3 0.00 0.00 0.00 87 1010.0
20260903084654 79 204 4.3 12.2 0.00 0.00 0.00 86 1009.9
20260903083700 79 198 4.3 12.2 0.00 0.00 0.00 86 1009.9
20260903082641 79 165 4.3 12.2 0.00 0.00 0.00 85 1010.0
20260903080547 80 174 3.5 9.6 0.00 0.00 0.00 84 1010.0
20260903075601 80 191 3.5 9.6 0.00 0.00 0.00 84 1010.1
20260903074608 80 146 4.3 10.4 0.00 0.00 0.00 84 1010.1
20260903073538 80 193 4.3 10.4 0.00 0.00 0.00 83 1010.2
20260903072511 80 159 4.3 12.2 0.00 0.00 0.00 82 1010.2
20260903070418 81 174 4.3 11.3 0.00 0.00 0.00 81 1010.2
20260903065344 81 210 4.3 11.3 0.00 0.00 0.00 80 1010.3
20260903063226 82 155 4.3 13.0 0.00 0.00 0.00 78 1010.3
20260903062237 82 180 5.2 13.0 0.00 0.00 0.00 77 1010.4
20260903061214 82 205 5.2 17.4 0.00 0.00 0.00 75 1010.5
20260903060231 83 202 5.2 17.4 0.00 0.00 0.00 73 1010.5
20260903054050 83 170 5.2 13.0 0.00 0.00 0.00 70 1010.4
20260903053034 84 153 5.2 13.0 0.00 0.00 0.00 69 1010.5
20260903052017 84 133 5.2 11.3 0.00 0.00 0.00 68 1010.5
20260903051009 84 153 4.3 11.3 0.00 0.00 0.00 67 1010.4
20260903044921 85 167 3.5 10.4 0.00 0.00 0.00 65 1010.2
20260903043939 85 173 2.6 10.4 0.00 0.00 0.00 64 1010.2
20260903042953 85 128 2.6 7.0 0.00 0.00 0.00 64 1010.1
20260903042011 85 117 2.6 7.8 0.00 0.00 0.00 63 1010.1
20260903040946 86 128 2.6 8.7 0.00 0.00 0.00 62 1010.0
20260903035959 86 126 2.6 8.7 0.00 0.00 0.00 62 1009.9
20260903035015 86 69 2.6 11.3 0.00 0.00 0.00 60 1010.0
20260903034024 87 181 3.5 11.3 0.00 0.00 0.00 59 1010.0
20260903031826 87 202 1.7 6.1 0.00 0.00 0.00 58 1009.8
20260903030811 88 113 1.7 6.1 0.00 0.00 0.00 57 1009.5
20260903023533 89 119 1.7 6.1 0.00 0.00 0.00 55 1009.0
20260903021424 89 107 0.9 5.2 0.00 0.00 0.00 53 1008.6
20260903020415 90 112 1.7 5.2 0.00 0.00 0.00 53 1008.4
20260903015403 90 117 0.9 2.6 0.00 0.00 0.00 51 1008.3
20260903014334 91 109 0.9 2.6 0.00 0.00 0.00 50 1008.3
20260903012226 93 99 0.0 1.7 0.00 0.00 0.00 47 1008.1
20260903011250 94 90 0.0 1.7 0.00 0.00 0.00 46 1008.0
20260903005150 95 128 0.0 0.9 0.00 0.00 0.00 43 1008.0
20260903004152 96 128 0.0 0.9 0.00 0.00 0.00 42 1008.1
20260903003156 96 128 0.9 2.6 0.00 0.00 0.00 41 1008.0
20260903001035 97 168 0.9 3.5 0.00 0.00 0.00 40 1008.1
20260903000044 98 161 0.0 2.6 0.00 0.00 0.00 40 1008.1
20260902233928 100 174 0.9 4.3 0.00 0.00 0.00 38 1008.0
20260902232859 101 174 0.9 3.5 0.00 0.00 0.00 37 1008.1
20260902231827 101 178 0.0 7.0 0.00 0.00 0.00 37 1008.2
20260902230825 101 211 0.9 7.0 0.00 0.00 0.00 38 1008.2
20260902225757 101 216 0.9 7.0 0.00 0.00 0.00 38 1008.2
20260902224739 100 236 1.7 7.0 0.00 0.00 0.00 39 1008.2
20260902223718 99 148 2.6 6.1 0.00 0.00 0.00 40 1008.2
20260902220408 97 161 1.7 5.2 0.00 0.00 0.00 43 1008.5
20260902215425 97 197 1.7 5.2 0.00 0.00 0.00 44 1008.5
20260902214407 97 209 3.5 7.8 0.00 0.00 0.00 44 1008.6
20260902212305 97 199 3.5 8.7 0.00 0.00 0.00 46 1008.9
20260902211258 98 182 2.6 8.7 0.00 0.00 0.00 44 1009.0
20260902210253 97 193 1.7 10.4 0.00 0.00 0.00 45 1009.0
20260902205236 98 176 2.6 10.4 0.00 0.00 0.00 44 1009.1